Погода в Волчьем Враге

Россия / Пензенская область     52°45′59″N   43°23′46″E
темп.,
°C
ветер,
м/с
пор.,
м/с
влажн.,
%
обл.,
%
осадки,
мм/ч
давл.,
гПа
погр.,
м
9 мая, вс
вс900:00+12ююв61678100 0.1 1008422
03:00+12ююв61388100 0.8 1007357
06:00+12ююв51291100 0.2 1006353
09:00+14ююв61488100 0.7 1006810
12:00+13ююз5994100 2.1 1007642
15:00+9сз4996100 7.2 1010535
18:00+9зсз3695100 1.7 1011479
21:00+8сз6994100 2.6 1013502
10 мая, пн
пн1000:00+6сз5897100 4.3 1015438
03:00+6ссз5997100 5.6 1015415
06:00+6ссз51098100 1.4 1016403
09:00+8с61096100 3.4 1016365
12:00+10с81293100 0.9 1016417
15:00+12ссв101791100 0.9 1016609
18:00+13ссв101890100 0.2 1016478
21:00+13св81990100 0.9 1016454
11 мая, вт
вт1100:00+13св81789100 0.4 1016437
03:00+13св81688100 0.4 1017435
06:00+14всв71680100 0.0 1018563
09:00+9ююз3693100 0.3 1021210
12:00+12юв477993 0.2 1024866
15:00+16ююв67522 0.3 10241398
18:00+15вюв46631 0.0 1026360
21:00+10ю117796 0.0 102710
12 мая, ср
ср1200:00+11с2275100 0.0 102733
03:00+9св4789100 0.3 1025250
06:00+9ссв41098100 2.7 1023381
09:00+13в81591100 3.3 10211023
12:00+14вюв7138298 0.2 1021926
15:00+16ююв61078100 0.3 10221103
18:00+13ююз1294100 0.1 102385
21:00+13св2392100 0.1 102354
13 мая, чт
чт1300:00+13в41091100 0.0 1022277
03:00+13в51382100 0.0 1021279
06:00+13в51481100 0.4 1021423
09:00+18юв711650 0.4 1020674
12:00+19юв51072100 0.9 10201114
15:00+21ююв696885 1.6 10201225
18:00+18юв3683100 0.7 1020149
21:00+17вюв3684100 0.8 1020111